CloseHelpProblem

Lions Burley Spudman

07/28/07


PlBibName RepresentingAge Division Interval TimeTime BackTotal Time
1621Michael MAMALESSALT LAKE CITY UT USA06 M 40 - 4400:01:14.590+00:00:00.0000:17:08.000
2624Robert BAKERLINDON UT USA06 M 40 - 4400:01:21.960+00:00:07.3700:26:12.200
3734Bart CONRADJACKSON WY USA06 M 40 - 4400:01:36.380+00:00:21.7900:19:34.100
4649Scott STEINSALT LAKE CITY UT USA06 M 40 - 4400:01:56.200+00:00:41.6100:21:16.760
5703Greg TAYLERHEBER CITY UT USA06 M 40 - 4400:01:59.810+00:00:45.2200:15:36.600
6675Rex SHUPEKAYSVILLE UT USA06 M 40 - 4400:02:00.020+00:00:45.4300:18:22.860
7664Chris HARDSALT LAKE CITY UT USA06 M 40 - 4400:02:00.720+00:00:46.1300:20:26.090
8681Dirk JEFFSDRAPER UT USA06 M 40 - 4400:02:02.620+00:00:48.0300:21:05.130
9741Glen ALLENBURLEY ID USA06 M 40 - 4400:02:04.180+00:00:49.5900:22:44.460
10656Adam DEWAALSLC UT USA06 M 40 - 4400:02:18.110+00:01:03.5200:21:14.250
11628Jeff DOLLOFF-HOLTWEST VALLEY CITY UT USA06 M 40 - 4400:02:18.770+00:01:04.1800:16:16.900
12730Kent HANSENSANDY UT USA06 M 40 - 4400:02:30.260+00:01:15.6700:56:27.450
13694Jon MOENEW YORK NY USA06 M 40 - 4400:02:32.380+00:01:17.7900:22:43.640
14630Scott GLENNSTANSBURY PARK UT USA06 M 40 - 4400:02:33.620+00:01:19.0300:23:02.810
15641Dave SHARPSALT LAKE CITY UT USA06 M 40 - 4400:02:34.350+00:01:19.7600:23:05.380
16736Tom STOCKHAMHOLLADAY UT USA06 M 40 - 4400:02:36.690+00:01:22.1000:19:32.470
17678Karl LINCOLNSANDY UT USA06 M 40 - 4400:02:36.800+00:01:22.2100:18:46.960
18631Steven BERRYOREM UT USA06 M 40 - 4400:02:36.950+00:01:22.3600:21:13.790
19663Randy SCOTTSOUTH JORDAN UT USA06 M 40 - 4400:02:42.570+00:01:27.9800:21:09.930
20743David COOKPARK CITY UT USA06 M 40 - 4400:02:50.360+00:01:35.7700:22:09.380
21685John KIMBALLSALT LAKE CITY UT USA06 M 40 - 4400:02:51.020+00:01:36.4300:20:46.700
22691Lonnie HUNTERDRAPER UT USA06 M 40 - 4400:02:51.400+00:01:36.8100:21:14.150
23637Dave ASHBYSPRINGVILLE UT USA06 M 40 - 4400:02:51.960+00:01:37.3700:21:56.330
24702Carl VAN GILSST. GEORGE UT USA06 M 40 - 4400:02:54.050+00:01:39.4600:22:50.010
25623Cody LASLEYSYRACUSE UT USA06 M 40 - 4400:02:54.310+00:01:39.7200:23:23.040
26683Robert TIMPANYRIGBY ID USA06 M 40 - 4400:02:56.150+00:01:41.5600:20:12.690
27714Bret REICHSANDY UT USA06 M 40 - 4400:02:58.210+00:01:43.6200:23:28.190
28665Bob ZANETTIPARK CITY UT USA06 M 40 - 4400:02:58.400+00:01:43.8100:22:40.880
29726Gregg GREERDRAPER UT USA06 M 40 - 4400:03:01.330+00:01:46.7400:23:33.680
30687Todd WATTSST. GEORGE UT USA06 M 40 - 4400:03:04.930+00:01:50.3400:24:22.500
31632Scott FROGLEYDRAPER UT USA06 M 40 - 4400:03:10.060+00:01:55.4700:23:51.500
32674Paul KORTHWEST JORDAN UT USA06 M 40 - 4400:03:12.160+00:01:57.5700:22:11.380
33640Miles MCCRACKENALPINE UT USA06 M 40 - 4400:03:13.110+00:01:58.5200:21:28.690
34710William TINGEYKAYSVILLE UT USA06 M 40 - 4400:03:14.280+00:01:59.6900:22:50.760
35662Jeff CLEGGJEROME ID USA06 M 40 - 4400:03:14.380+00:01:59.7900:24:01.290
36682Dale CRANNEYMIDWAY UT USA06 M 40 - 4400:03:16.700+00:02:02.1100:22:26.800
37708Gordon GARRETTLAYTON UT USA06 M 40 - 4400:03:17.150+00:02:02.5600:26:25.420
38655Carl PETERSONSANDY UT USA06 M 40 - 4400:03:21.310+00:02:06.7200:24:00.020
39725Thomas LINDSEYSPRINGVILLE UT USA06 M 40 - 4400:03:21.620+00:02:07.0300:28:56.960
40659Curtis EVANSSOUTH JORDAN UT USA06 M 40 - 4400:03:21.780+00:02:07.1900:30:49.490
41633Mike GARNERDECLO ID USA06 M 40 - 4400:03:22.130+00:02:07.5400:23:28.010
42713Brent DIXONSHERWOOD OR USA06 M 40 - 4400:03:26.470+00:02:11.8800:24:02.920
43622Dixon HOLMESPROVO UT USA06 M 40 - 4400:03:28.380+00:02:13.7900:25:57.410
44733Rick MCCORDALPINE UT USA06 M 40 - 4400:03:34.480+00:02:19.8900:26:55.340
45670Phillip GOOLDDRAPER UT USA06 M 40 - 4400:03:40.070+00:02:25.4800:23:11.890
46666Rich AGRENSOUTH JORDAN UT USA06 M 40 - 4400:03:40.190+00:02:25.6000:20:49.580
47629Robert PODGORNEYIDAHO FALLS ID USA06 M 40 - 4400:03:41.650+00:02:27.0600:23:29.420
48705Joseph MULLINSPOCATELLO ID USA06 M 40 - 4400:03:43.740+00:02:29.1500:24:16.670
49698Conrad SMITHSANDY UT USA06 M 40 - 4400:03:43.920+00:02:29.3300:25:13.980
50671Nate ALDERSALT LAKE CITY UT USA06 M 40 - 4400:03:46.570+00:02:31.9800:25:48.840
51699Bradley WILLIAMSTWIN FALLS ID USA06 M 40 - 4400:03:46.940+00:02:32.3500:20:35.610
52740Dominic BRIALEHI UT USA06 M 40 - 4400:03:47.640+00:02:33.0500:25:07.730
53735J Lance DOWDLESHERWOOD OR USA06 M 40 - 4400:03:53.570+00:02:38.9800:27:52.720
54723Dan SORENSENSALT LAKE CITY UT USA06 M 40 - 4400:03:57.090+00:02:42.5000:25:52.470
55722Roger TAYLORLEHI UT USA06 M 40 - 4400:03:57.940+00:02:43.3500:29:08.860
56742Steve OSTLERSALT LAKE CITY UT USA06 M 40 - 4400:03:59.290+00:02:44.7000:25:55.760
57692Doug EVANSKAYSVILLE UT USA06 M 40 - 4400:03:59.730+00:02:45.1400:23:36.800
58651Mahana FISHERBLANDING UT USA06 M 40 - 4400:04:02.950+00:02:48.3600:23:27.170
59643Dan ALDREDBOISE ID USA06 M 40 - 4400:04:03.890+00:02:49.3000:22:18.870
601643Rob ANDRALEHI UT USA06 M 40 - 4400:04:08.840+00:02:54.2500:27:50.800
61745R THOMPSONSALT LAKE CITY UT USA06 M 40 - 4400:04:10.350+00:02:55.7600:27:31.640
62715Mick DAINESROY UT USA06 M 40 - 4400:04:10.800+00:02:56.2100:23:44.100
63709Daniel HARPERPROVO UT USA06 M 40 - 4400:04:22.330+00:03:07.7400:21:59.540
64739Temp PATTERSONBURLEY ID USA06 M 40 - 4400:04:22.500+00:03:07.9100:23:41.690
65645Richard MATHESONLINDON UT USA06 M 40 - 4400:04:24.610+00:03:10.0200:25:16.420
66706Kyle HARWARDFARMINGTON UT USA06 M 40 - 4400:04:26.460+00:03:11.8700:26:19.530
67652Kurt FLYGAREALPINE UT USA06 M 40 - 4400:04:31.300+00:03:16.7100:27:24.050
68644Craig WARDSALT LAKE CITY SD USA06 M 40 - 4400:04:33.580+00:03:18.9900:23:28.550
69660Glen GUYMONROSEVILLE CA USA06 M 40 - 4400:04:42.490+00:03:27.9000:29:40.140
70711Brad MERTZSPRINGVILLE UT USA06 M 40 - 4400:04:43.930+00:03:29.3400:23:35.490
71737Ian SPENCERRIVERTON UT USA06 M 40 - 4400:04:46.860+00:03:32.2700:24:34.960
72712Jeff THOMASDRAPER UT USA06 M 40 - 4400:04:51.460+00:03:36.8700:24:04.310
73679Todd RUSHTONRUPERT ID USA06 M 40 - 4400:04:53.840+00:03:39.2500:25:47.640
74636Todd GROLLFARMINGTON UT USA06 M 40 - 4400:04:54.140+00:03:39.5500:29:00.610
75677Brian HALLBOUNTIFUL UT USA06 M 40 - 4400:04:59.050+00:03:44.4600:24:28.170
76704Scott MERVINSALT LAKE CITY UT USA06 M 40 - 4400:05:04.870+00:03:50.2800:30:00.240
77684Coray TATEOREM UT USA06 M 40 - 4400:05:05.770+00:03:51.1800:24:47.940
78676Claes HORNSTRANDTHOUSAND OAKS CA USA06 M 40 - 4400:05:10.600+00:03:56.0100:22:39.590
79669Alan JOHNSONCEDAR HILLS UT USA06 M 40 - 4400:05:15.880+00:04:01.2900:29:28.460
80642David WARDSPOKANE WA USA06 M 40 - 4400:05:16.470+00:04:01.8800:26:43.470
81746Adam HOWARDLAYTON UT USA06 M 40 - 4400:05:19.130+00:04:04.5400:25:05.780
821640Tom KITCHENPLEASANT GROVE UT USA06 M 40 - 4400:05:24.680+00:04:10.0900:34:26.500
83654Mark ROYLANCEFRUIT HEIGHTS UT USA06 M 40 - 4400:05:31.780+00:04:17.1900:25:51.140
84638Bart HANSONRUPERT ID USA06 M 40 - 4400:05:35.520+00:04:20.9300:27:17.140
85672Fred STURGELLHENDERSON CO USA06 M 40 - 4400:05:43.850+00:04:29.2600:28:46.880
86696Roger DAYTONOREM UT USA06 M 40 - 4400:05:48.980+00:04:34.3900:31:37.790
87625Roger THOMSALT LAKE CITY UT USA06 M 40 - 4400:05:56.920+00:04:42.3300:31:12.380
88818Scott ROGERSRUPERT ID USA06 M 40 - 4400:05:59.510+00:04:44.9200:28:24.520
89635John MORGANOREM UT USA06 M 40 - 4400:07:05.700+00:05:51.1100:32:41.780
90648Jared DOWDLECHANDLER AZ USA06 M 40 - 4400:07:54.460+00:06:39.8700:33:40.580
91732Todd BARNEYALPINE UT USA06 M 40 - 4400:08:18.380+00:07:03.7900:33:38.360